Time,TemperatureF,DewpointF,PressureIn,WindDirection,WindDirectionDegrees,WindSpeedMPH,WindSpeedGustMPH,Humidity,HourlyPrecipIn,Conditions,Clouds,dailyrainin,SolarRadiationWatts/m^2,SoftwareType,DateUTC
2013-09-18 00:04:00,68.0,66.0,-100.00,SE,137,7.0,14.0,94,0.00,,,-99.99,0.000000,,2013-09-18 05:04:00,
2013-09-18 00:11:00,68.0,67.0,-100.00,SE,135,5.0,13.0,96,0.00,,,0.00,0.000000,,2013-09-18 05:11:00,
2013-09-18 00:43:00,68.0,67.0,-100.00,SE,135,5.0,13.0,96,0.00,,,0.00,0.000000,,2013-09-18 05:43:00,
2013-09-18 00:53:00,68.0,67.0,-100.00,SE,135,5.0,13.0,96,0.00,,,0.00,0.000000,,2013-09-18 05:53:00,
2013-09-18 01:02:00,68.0,67.0,-100.00,SE,135,5.0,13.0,96,0.00,,,0.00,0.000000,,2013-09-18 06:02:00,
2013-09-18 01:11:00,69.0,68.0,-100.00,SE,142,5.0,16.0,95,0.00,,,0.00,0.000000,,2013-09-18 06:11:00,
2013-09-18 01:42:00,69.0,68.0,-100.00,SE,142,5.0,16.0,95,0.00,,,0.00,0.000000,,2013-09-18 06:42:00,
2013-09-18 01:52:00,69.0,68.0,-100.00,SE,142,5.0,16.0,95,0.00,,,0.00,0.000000,,2013-09-18 06:52:00,
2013-09-18 02:01:00,69.0,68.0,-100.00,SE,142,5.0,16.0,95,0.00,,,0.00,0.000000,,2013-09-18 07:01:00,
2013-09-18 02:11:00,69.0,68.0,-100.00,South,174,5.0,12.0,95,0.00,,,0.00,0.000000,,2013-09-18 07:11:00,
2013-09-18 02:42:00,69.0,68.0,-100.00,South,174,5.0,12.0,95,0.00,,,0.00,0.000000,,2013-09-18 07:42:00,
2013-09-18 02:52:00,69.0,68.0,-100.00,South,174,5.0,12.0,95,0.00,,,0.00,0.000000,,2013-09-18 07:52:00,
2013-09-18 03:02:00,69.0,68.0,-100.00,South,174,5.0,12.0,95,0.00,,,0.00,0.000000,,2013-09-18 08:02:00,
2013-09-18 03:11:00,69.0,68.0,-100.00,SSW,198,5.0,12.0,95,0.00,,,0.00,0.000000,,2013-09-18 08:11:00,
2013-09-18 03:42:00,69.0,68.0,-100.00,SSW,198,5.0,12.0,95,0.00,,,0.00,0.000000,,2013-09-18 08:42:00,
2013-09-18 03:52:00,69.0,68.0,-100.00,SSW,198,5.0,12.0,95,0.00,,,0.00,0.000000,,2013-09-18 08:52:00,
2013-09-18 04:02:00,69.0,68.0,-100.00,SSW,198,5.0,12.0,95,0.00,,,0.00,0.000000,,2013-09-18 09:02:00,
2013-09-18 04:11:00,69.0,68.0,-100.00,SW,218,5.0,12.0,95,0.00,,,0.00,0.000000,,2013-09-18 09:11:00,
2013-09-18 04:43:00,69.0,68.0,-100.00,SW,218,5.0,12.0,95,0.00,,,0.00,0.000000,,2013-09-18 09:43:00,
2013-09-18 04:53:00,69.0,68.0,-100.00,SW,218,5.0,12.0,95,0.00,,,0.00,0.000000,,2013-09-18 09:53:00,
2013-09-18 05:03:00,69.0,68.0,-100.00,SW,218,5.0,12.0,95,0.00,,,0.00,0.000000,,2013-09-18 10:03:00,
2013-09-18 05:11:00,69.0,68.0,-100.00,SSW,195,4.0,12.0,96,0.00,,,0.00,0.000000,,2013-09-18 10:11:00,
2013-09-18 05:43:00,69.0,68.0,-100.00,SSW,195,4.0,12.0,96,0.00,,,0.00,0.000000,,2013-09-18 10:43:00,
2013-09-18 05:53:00,69.0,68.0,-100.00,SSW,195,4.0,12.0,96,0.00,,,0.00,0.000000,,2013-09-18 10:53:00,
2013-09-18 06:02:00,69.0,68.0,-100.00,SSW,195,4.0,12.0,96,0.00,,,0.00,0.000000,,2013-09-18 11:02:00,
2013-09-18 06:11:00,69.0,68.0,-100.00,SSW,192,4.0,9.0,95,0.00,,,0.00,0.000000,,2013-09-18 11:11:00,
2013-09-18 06:42:00,69.0,68.0,-100.00,SSW,192,4.0,9.0,95,0.00,,,0.00,0.000000,,2013-09-18 11:42:00,
2013-09-18 06:52:00,69.0,68.0,-100.00,SSW,192,4.0,9.0,95,0.00,,,0.00,0.000000,,2013-09-18 11:52:00,
2013-09-18 07:01:00,69.0,68.0,-100.00,SSW,192,4.0,9.0,95,0.00,,,0.00,0.000000,,2013-09-18 12:01:00,
2013-09-18 07:11:00,69.0,68.0,-100.00,South,186,4.0,9.0,96,0.00,,,0.00,0.000000,,2013-09-18 12:11:00,
2013-09-18 07:43:00,69.0,68.0,-100.00,South,186,4.0,9.0,96,0.00,,,0.00,0.000000,,2013-09-18 12:43:00,
2013-09-18 07:52:00,69.0,68.0,-100.00,South,186,4.0,9.0,96,0.00,,,0.00,0.000000,,2013-09-18 12:52:00,
2013-09-18 08:02:00,69.0,68.0,-100.00,South,186,4.0,9.0,96,0.00,,,0.00,0.000000,,2013-09-18 13:02:00,
2013-09-18 22:11:00,78.0,70.0,-100.00,East,99,3.0,7.0,77,0.00,,,0.00,0.000000,,2013-09-19 03:11:00,
2013-09-18 23:01:00,78.0,70.0,-100.00,East,99,3.0,7.0,77,0.00,,,0.00,0.000000,,2013-09-19 04:01:00,
2013-09-18 23:11:00,78.0,69.0,-100.00,NW,312,4.0,9.0,75,0.00,,,0.00,0.000000,,2013-09-19 04:11:00,
2013-09-18 23:44:00,78.0,69.0,-100.00,NW,312,4.0,9.0,75,0.00,,,0.00,0.000000,,2013-09-19 04:44:00,
2013-09-18 23:54:00,78.0,69.0,-100.00,NW,312,4.0,9.0,75,0.00,,,0.00,0.000000,,2013-09-19 04:54:00,